Location: Clegg Observatory
(38.9178°N, 78.6069°W)
Time: 07:34:52
(UTC-05:00)

Daily predictions for brighter satellites

Satellite Brightness Start Highest point End
(mag) Time Altitude Azimuth Time Altitude Azimuth Time Altitude Azimuth
Cosmos 1818 3.6 18:18:51 10° SSW 18:24:17 79° ESE 18:29:46 10° NNE
Cosmos 407 Rocket 3.5 18:20:34 10° SSW 18:25:48 83° ESE 18:31:08 10° NNE
Cosmos 2360 Rocket 2.8 18:22:53 10° N 18:28:02 35° ENE 18:33:11 10° SE
Cosmos 2219 4.5 18:24:38 10° SE 18:28:35 19° E 18:32:33 10° NE
Cosmos 1980 Rocket 4.5 18:23:45 10° NW 18:28:40 31° WSW 18:33:35 10° SSW
Cosmos 2219 Rocket 4.1 18:28:34 10° NE 18:29:00 10° NE 18:29:26 10° NE
Cosmos 676 Rocket 4.0 18:25:16 10° S 18:30:22 62° ESE 18:35:31 10° NNE
DNEPR-1 R/B 3.5 18:27:49 10° NNW 18:32:04 89° WSW 18:36:22 10° SSE
Meteor 1-11 Rocket 4.3 18:32:47 10° SSE 18:38:05 39° E 18:43:29 10° NNE
Nadezhda 1 Rocket 4.1 18:32:55 10° N 18:39:01 80° W 18:45:04 10° S
Cosmos 1461 3.2 18:40:46 10° NW 18:44:46 68° WSW 18:48:52 10° SSE
DELTA 2 R/B (1) 3.7 18:39:37 10° W 18:45:15 80° SSW 18:50:43 11° ESE
Cosmos 1140 Rocket 3.6 18:40:32 10° S 18:45:28 50° ESE 18:50:27 10° NNE
Cosmos 1602 3.9 18:44:55 10° SSE 18:48:38 48° E 18:52:25 10° NNE
Resurs 01 Rocket 2.5 18:45:18 10° SE 18:49:02 28° ENE 18:52:47 10° N
Cosmos 1300 Rocket 3.7 18:45:54 10° SSE 18:50:09 49° E 18:54:26 10° NNE
Cosmos 2292 Rocket 4.3 18:48:04 10° S 18:53:05 87° E 18:59:56 10° N
Cosmos 614 Rocket 4.2 18:48:34 10° S 18:53:22 44° ESE 18:58:10 10° NNE
Cosmos 1833 4.2 18:49:39 10° SSW 18:55:22 82° ESE 19:01:03 10° NNE
Abrixas rocket 3.6 18:52:36 10° SSW 18:55:23 24° SE 18:56:52 18° E
COSMO-SKYMED 1 4.1 18:52:04 10° N 18:56:08 40° WNW 19:00:10 10° SW
ALOS 2.5 18:52:29 10° SE 18:56:55 46° ENE 19:01:24 10° N
Cosmos 2181 Rocket 4.0 18:52:48 10° N 18:59:01 64° E 19:05:18 10° SSE
Spot 2 Rocket 3.9 18:56:42 10° SE 19:01:21 39° ENE 19:06:03 10° N
Cosmos 2333 Rocket 3.8 18:59:31 10° NNE 19:02:55 16° NE 19:04:11 15° ENE
FREGAT/IRIS 2.6 19:01:32 10° SSE 19:04:36 87° W 19:07:42 10° NNW
SL-16 R/B 3.4 18:59:25 10° NW 19:04:47 45° WSW 19:10:08 10° S
Helios 1A 4.2 19:04:17 20° E 19:05:09 21° ENE 19:08:17 10° NNE
NOSS 8 (E) 4.4 19:02:20 10° SSW 19:05:46 74° ESE 19:09:17 11° NE
Resurs 1-3 4.2 19:02:52 10° SE 19:06:51 36° ENE 19:10:52 10° N
Cosmos 1340 2.6 19:03:35 10° N 19:07:24 87° W 19:11:10 10° S
Cosmos 1709 Rocket 4.2 19:06:16 10° S 19:12:29 77° W 19:18:40 10° N
Cosmos 1850 Rocket 4.1 19:07:25 10° S 19:12:35 57° ESE 19:17:48 10° NNE
Cosmos 2074 Rocket 4.2 19:06:45 10° SSE 19:12:37 45° E 19:18:32 10° NNE
Cosmos 2184 Rocket 4.2 19:09:36 10° SSE 19:15:34 46° E 19:21:30 10° NNE
Envisat 4.4 19:18:30 18° NE 19:18:30 18° NE 19:21:23 10° NNE
Helios 1B rocket 3.2 19:18:13 27° ENE 19:18:55 29° E 19:22:32 10° SSE
FengYun 1-2 T 4.1 19:13:31 10° SSE 19:18:58 74° ENE 19:24:27 10° N
NOSS 8 (H) 4.3 19:16:28 10° SSW 19:19:51 74° ESE 19:21:51 23° NE
Cosmos 2322 Rocket 4.1 19:16:13 10° NW 19:21:05 31° WSW 19:25:56 10° SSW
HJ-1C 3.3 19:18:22 10° SSE 19:21:44 88° E 19:25:07 10° N
SJ-6B 3.5 19:19:08 10° S 19:23:06 56° W 19:26:59 10° NNW
Okean 1 Rocket 3.1 19:20:26 10° S 19:24:55 88° W 19:29:26 10° N
Tiangong 2 3.0 19:22:21 10° W 19:24:57 25° SSW 19:26:32 16° SSE
Meteor 1-5 Rocket 4.4 19:19:58 10° SSE 19:25:43 51° E 19:31:26 10° NNE
FENGYUN 3A 3.6 19:21:23 10° SSE 19:26:48 88° ENE 19:32:15 10° NNW
Genesis I 3.4 19:23:26 10° NNW 19:27:16 48° NE 19:28:05 41° E
Meteor 1-19 Rocket 4.4 19:23:37 10° NNW 19:29:19 80° W 19:35:05 10° S
SAR-Lupe-4 3.8 19:30:26 44° ENE 19:30:26 44° ENE 19:33:45 10° N
Hubble Space Telescope 3.1 19:30:07 10° S 19:31:18 11° SSE 19:31:23 11° SSE
Gbstr 26 Del rocket 3.2 19:31:36 10° WSW 19:35:20 54° NW 19:36:53 30° NNE
Cosmos 2322 3.9 19:31:56 10° NNW 19:37:39 72° WSW 19:43:18 10° SSE
Cosmos 1238 Rocket 3.9 19:35:41 10° NNW 19:38:23 32° W 19:41:06 10° SSW
CZ-2D R/B 3.0 19:43:32 53° SSE 19:44:20 76° ENE 19:48:09 10° N
Cosmos 2154 Rocket 4.3 19:38:43 10° SSE 19:44:33 41° E 19:50:25 10° NNE
Cosmos 2285 Rocket 4.1 19:38:47 10° N 19:45:06 55° ENE 19:47:50 33° SE
GEOS 3 Rocket 3.9 19:40:06 10° NNE 19:45:19 68° NW 19:50:33 10° SW
Cosmos 1025 Rocket 2.9 19:41:45 10° N 19:46:09 79° E 19:48:42 25° SSE
GPS 2-04 Rocket1 3.4 19:42:11 10° WSW 19:46:16 42° SSE 19:46:29 42° SSE
H-2A R/B 3.0 19:46:26 13° S 19:49:38 65° W 19:53:21 10° NNW
Meteor 2-13 Rocket 4.4 19:44:31 10° S 19:50:25 58° E 19:56:23 10° NNE
Cosmos 1536 3.7 19:46:46 10° SSW 19:50:38 49° W 19:54:31 10° N
Okean 1-7 Rocket 4.0 19:47:51 10° NNW 19:52:20 65° W 19:56:46 10° S
COSMOS 2428 2.6 19:47:19 10° NNW 19:53:03 80° ENE 19:55:38 34° SSE
Meteor 1-23 Rocket 4.2 19:47:15 10° N 19:53:05 86° W 19:58:49 10° S
Cosmos 2237 4.2 19:47:33 10° NNW 19:53:18 81° WSW 19:57:28 19° SSE
Cosmos 2333 4.1 19:48:41 10° NNW 19:54:25 71° ENE 19:56:21 42° SE
Meteor 2-4 Rocket 4.0 19:49:54 10° NNW 19:55:23 65° W 20:00:43 10° S
Cosmos 2237 Rocket 3.3 19:52:07 10° N 19:55:53 27° NE 19:55:53 27° NE
NOSS 0 Rocket 4.1 20:02:42 10° NNW 20:08:24 50° NE 20:08:24 50° NE
Cosmos 2360 Rocket 3.9 20:07:00 10° NW 20:11:55 31° WSW 20:16:49 10° SSW
Cosmos 2219 3.8 20:06:36 10° SW 20:12:14 55° WNW 20:17:54 10° NNE
Cosmos 2219 Rocket 2.2 20:08:29 10° NNW 20:13:35 63° NE 20:13:35 63° NE
Cosmos 2227 Rocket 4.4 20:13:00 10° S 20:13:25 12° S 20:13:25 12° S
Resurs 01 Rocket 3.8 20:21:50 10° SSW 20:25:27 25° W 20:29:04 10° NW
SL-16 R/B 4.2 20:25:55 10° N 20:27:20 16° NNE 20:27:20 16° NNE
ATLAS CENTAUR R/B 4.3 20:29:46 10° SW 20:30:46 15° SW 20:30:46 15° SW
BREEZE-M DEB (TANK) 4.1 20:30:10 10° NW 20:34:15 90° WSW 20:35:01 73° SE
Cosmos 2333 Rocket 2.9 20:42:08 10° NNW 20:46:14 48° NNW 20:46:14 48° NNW
USA 229 DEB 4.1 20:46:55 10° NW 20:53:56 61° WSW 20:54:32 59° SW
USA 229 4.1 20:47:00 10° NW 20:54:03 61° WSW 20:54:35 60° SW
NOSS 3-1 (A) 4.5 20:59:16 10° NNW 21:04:58 50° N 21:04:58 50° N
Cosmos 2237 Rocket 4.5 21:35:56 10° NW 21:37:45 20° NW 21:37:45 20° NW
